Theta_e
310 310 319 326 337 338 342 343 336 339 336 326 325 328 329 330 335 330 326 331 333 329 321 320 321 323 316 316 318 319 319 319 319 319 320 322 323 327 329 327 328 326 327 331 332 332 333 331 329
310 319 325 334 343 345 344 340 342 338 335 332 323 322 322 326 324 328 335 332 332 330 324 321 320 324 318 317 319 320 320 320 321 321 323 326 329 333 334 334 334 333 332 331 332 333 334 334 334
314 323 332 340 345 346 341 339 338 336 332 330 326 322 323 326 327 329 333 333 332 330 327 328 321 324 321 318 319 320 321 321 322 323 327 331 332 334 333 335 334 332 331 330 330 332 335 335 335
323 330 334 340 343 342 340 338 336 335 332 326 325 326 324 323 326 327 330 334 333 331 330 330 324 325 322 319 320 321 321 322 325 329 334 335 336 336 335 336 335 334 333 332 331 335 334 332 333
330 335 339 344 342 339 337 336 335 334 331 330 324 327 327 324 323 324 330 334 332 332 328 333 325 325 323 320 320 322 323 324 326 327 334 337 337 337 337 336 335 334 334 333 332 334 332 332 332
333 332 339 339 337 335 333 332 332 332 330 329 324 325 327 323 324 326 329 332 331 332 329 332 327 325 323 321 321 323 324 325 326 326 332 334 336 335 335 335 334 334 334 334 333 333 332 331 330
332 335 332 334 332 332 332 330 331 329 329 329 324 327 328 326 324 325 327 330 329 333 330 332 330 326 324 322 322 324 326 326 326 327 329 332 329 329 334 332 331 331 332 332 332 332 333 332 331
332 333 331 332 329 329 330 329 328 330 330 325 324 329 331 328 322 324 329 332 331 333 333 332 333 339 339 336 324 326 327 326 326 327 329 329 327 328 326 327 327 329 330 330 331 331 331 330 329
327 331 330 328 329 328 329 330 327 327 330 328 328 329 328 324 323 328 332 332 332 334 333 334 337 339 340 339 338 329 329 328 328 332 333 328 331 330 330 330 326 327 329 328 329 330 330 330 329
331 332 330 328 327 328 328 328 329 330 330 330 330 329 325 324 324 327 331 331 332 333 333 334 333 336 338 339 339 340 338 336 337 335 334 333 331 331 329 328 326 325 327 328 328 329 331 330 331
331 333 330 329 328 327 329 329 329 330 330 329 330 330 331 330 326 326 327 329 330 331 332 331 331 335 337 338 337 336 334 333 331 329 330 330 330 331 331 330 329 328 327 327 327 327 328 328 330
330 330 330 329 329 329 330 329 330 330 330 329 329 330 330 329 328 326 326 327 329 329 331 332 332 332 333 335 330 327 324 325 327 326 327 329 331 331 330 329 328 327 327 326 327 327 327 328 330
330 329 329 330 330 330 329 329 329 328 328 327 329 329 328 327 328 326 325 326 326 327 328 330 331 332 334 330 326 324 325 325 327 325 326 327 329 330 330 329 328 327 327 327 326 326 327 328 330
324 327 326 327 328 328 327 326 324 324 325 325 325 324 325 326 327 326 325 325 324 325 325 326 328 332 331 326 324 325 324 324 326 327 328 328 329 329 329 329 328 328 328 327 326 326 326 328 329
319 322 322 322 322 321 319 319 319 321 321 322 322 324 325 326 325 326 326 325 324 324 323 323 328 330 326 325 325 325 323 326 327 328 328 328 329 329 329 330 329 328 326 326 326 326 326 328 329
318 319 320 320 319 319 318 320 320 321 322 323 324 324 325 326 326 325 325 325 325 323 323 320 324 326 325 325 326 325 325 327 328 328 329 329 329 329 329 330 329 328 326 325 326 327 326 327 328
318 320 319 319 317 318 320 320 320 321 322 323 324 324 324 325 327 327 325 325 323 322 322 321 324 327 325 326 326 326 327 327 329 329 330 330 330 328 328 329 328 327 327 326 327 327 326 327 328
319 318 318 318 317 317 318 319 320 322 322 323 324 325 325 326 327 326 324 323 324 324 320 320 324 326 327 328 326 327 327 329 329 330 331 330 330 329 329 327 328 326 327 327 326 327 326 327 328
319 319 321 318 318 318 321 322 323 323 323 323 324 325 326 328 327 322 322 323 325 325 327 327 328 329 328 329 330 330 331 332 332 331 330 330 331 330 328 328 326 326 326 327 327 327 326 327 327
314 316 317 318 318 320 322 322 322 322 322 322 324 325 326 328 327 325 323 325 326 327 328 329 330 328 328 327 330 331 332 332 330 330 329 330 330 330 328 327 323 325 327 326 326 326 326 328 328
316 316 317 319 321 320 321 322 322 322 323 322 323 326 327 327 328 327 325 326 327 328 328 330 330 327 327 327 330 329 328 328 330 330 330 329 327 329 327 327 324 326 327 327 326 326 327 327 328
318 317 317 318 319 324 321 326 323 322 321 323 325 327 327 326 327 327 327 327 327 328 329 330 329 328 330 330 330 331 330 330 329 329 328 329 327 328 328 327 328 327 327 327 326 326 327 327 328
317 317 318 318 321 322 322 323 322 323 322 323 322 326 327 325 328 328 328 327 328 328 329 329 329 331 331 330 331 330 329 329 328 328 329 329 329 327 328 328 328 328 327 326 326 326 327 326 328
317 319 320 321 322 325 324 323 323 321 321 321 323 326 328 328 327 327 327 327 328 328 328 329 331 332 331 331 329 328 328 328 329 330 331 330 328 328 329 327 328 327 326 326 326 326 325 325 326
319 320 322 323 324 328 321 321 322 321 321 323 325 328 329 329 328 328 328 329 329 328 329 330 332 332 332 332 330 329 328 328 330 330 330 330 330 329 329 328 325 326 327 327 327 327 328 328 327
319 321 323 325 323 322 320 320 319 322 323 322 325 326 328 329 328 328 329 329 328 329 329 330 331 332 332 331 331 330 329 330 330 330 330 330 330 330 329 327 326 327 326 326 327 328 328 328 327
318 319 319 320 322 322 321 323 324 325 326 326 325 326 329 330 328 328 328 328 328 329 330 331 331 332 332 331 331 330 330 331 331 330 330 331 330 330 329 328 328 328 328 327 327 328 329 329 327
317 318 317 319 318 318 322 326 323 327 328 328 328 329 330 329 328 328 328 327 328 329 330 330 331 331 332 331 330 331 331 330 329 330 329 331 330 330 329 329 329 329 328 327 328 328 329 329 330
315 318 318 318 318 317 319 322 329 328 329 330 331 330 330 329 328 328 327 326 328 328 329 329 330 329 330 330 330 330 331 330 328 330 329 331 331 330 330 329 329 329 328 328 328 329 328 328 327
314 317 318 317 319 318 321 321 324 328 327 329 330 329 329 329 328 327 327 326 327 328 328 329 329 328 329 330 329 331 331 329 329 330 330 331 331 330 330 329 329 327 326 326 328 327 328 328 328
Wind_Speed
12 14 10 3 3 2 3 3 2 2 1 3 7 5 6 2 4 6 1 16 12 28 28 33 30 26 23 21 19 17 14 12 11 10 9 9 9 9 9 8 8 8 8 7 7 7 5 4 4
16 13 3 2 2 3 3 3 6 3 7 11 6 7 4 6 4 5 3 22 14 28 31 32 34 30 26 24 21 19 16 15 14 13 13 12 12 12 11 12 11 10 10 9 10 10 8 6 5
14 4 2 2 2 5 2 6 3 7 10 3 3 3 4 4 4 3 7 26 19 27 32 30 33 31 28 26 24 21 18 17 16 15 15 15 14 14 15 14 14 13 12 12 12 14 10 10 8
6 4 2 4 10 6 4 3 4 9 3 2 2 7 3 6 4 5 11 26 21 25 31 28 33 33 30 28 25 23 20 18 17 15 16 16 16 16 16 15 16 15 14 13 14 16 13 13 12
1 1 3 4 7 5 8 11 7 7 6 7 2 3 4 3 9 5 15 26 24 25 32 27 34 34 32 29 26 24 21 18 17 16 15 16 17 17 16 16 17 18 17 16 16 15 16 17 16
3 1 4 7 7 6 7 10 5 8 4 4 4 3 5 2 6 10 17 27 24 26 33 30 33 35 32 30 27 25 21 19 17 16 15 14 17 15 15 16 16 16 17 17 17 16 18 19 19
4 3 5 5 6 7 6 3 3 2 2 2 1 4 3 5 8 11 16 26 26 26 31 31 31 36 33 30 27 24 22 19 17 17 15 15 14 15 14 14 14 15 16 17 17 18 19 18 17
3 3 4 6 6 6 5 4 6 1 2 1 4 3 8 8 8 11 15 21 22 25 27 30 30 27 26 26 28 25 22 19 18 18 17 16 17 16 15 15 15 15 14 16 17 19 20 20 20
2 6 11 8 7 7 1 4 2 1 8 6 7 9 8 10 6 8 12 18 20 21 26 28 25 24 24 22 22 24 21 20 18 17 18 16 15 14 15 15 16 14 14 15 16 17 18 19 21
9 11 14 11 10 9 6 8 9 6 13 21 13 14 9 9 8 12 18 25 26 25 28 27 28 28 24 20 19 17 16 15 15 15 15 14 15 15 16 17 17 16 15 14 15 16 17 17 16
10 19 21 18 16 5 14 15 10 13 18 22 16 19 21 18 14 17 23 31 35 30 25 30 29 25 23 20 18 16 14 14 16 17 16 15 15 16 16 16 14 13 12 12 11 13 14 13 13
13 18 23 22 16 10 16 13 17 16 26 26 21 18 20 19 15 19 24 29 30 29 29 25 28 27 26 22 22 19 19 16 15 14 17 18 16 17 17 16 15 14 12 12 11 10 10 12 13
15 20 17 20 18 17 19 19 19 24 28 24 20 19 19 19 21 24 27 28 28 29 23 22 26 27 28 25 21 20 18 15 12 14 17 18 16 17 17 17 16 15 13 11 11 10 10 10 11
9 22 23 17 16 19 19 24 10 20 26 21 22 25 23 22 21 21 19 28 27 27 24 25 27 29 28 25 23 20 16 14 13 15 16 17 17 16 17 16 16 16 16 13 11 9 9 11 11
10 15 13 12 17 13 15 20 17 25 21 19 23 22 22 20 20 19 26 28 35 27 20 24 26 28 27 24 21 17 14 13 14 16 17 18 17 17 16 16 16 15 17 13 10 9 8 9 9
9 6 14 12 17 11 10 20 14 21 15 17 18 17 18 19 19 24 27 25 18 19 20 25 27 30 29 25 19 14 13 14 16 18 17 17 16 15 14 15 14 12 13 11 9 9 8 10 9
8 12 15 11 8 6 13 18 15 11 10 17 20 20 18 19 19 21 21 20 19 23 25 27 28 27 28 23 17 13 12 13 15 16 15 15 14 13 13 12 12 10 11 10 10 9 10 10 8
18 12 10 13 9 11 16 22 15 19 13 20 20 20 18 18 23 17 14 14 18 22 28 32 34 29 25 17 14 11 12 13 14 13 13 13 12 11 10 11 11 11 11 9 9 9 9 9 9
17 21 21 14 9 7 13 18 15 20 19 19 19 19 19 19 14 6 4 9 16 20 26 30 29 24 21 14 9 6 9 8 9 10 11 11 10 10 8 9 10 11 11 11 9 8 11 7 9
24 22 23 14 12 9 16 22 18 18 21 17 18 20 18 17 10 1 4 8 14 19 22 25 25 26 19 14 9 6 5 6 7 7 7 7 8 8 9 10 11 10 9 9 10 11 10 5 11
28 29 23 20 5 9 9 18 20 23 13 16 19 17 16 14 7 4 7 11 15 20 24 24 23 22 17 13 9 6 5 4 3 3 2 3 5 5 8 9 10 9 9 9 11 13 13 10 9
27 23 23 19 9 13 2 19 16 21 21 18 18 14 14 9 3 7 10 12 17 21 23 21 20 19 14 12 8 6 4 2 2 3 4 5 4 4 5 7 9 10 8 8 10 14 12 11 13
21 14 19 16 7 12 19 13 16 7 17 22 19 14 7 3 5 9 12 16 20 22 21 19 18 15 14 12 7 5 4 2 1 3 4 4 3 3 4 6 8 8 7 8 12 14 11 11 11
15 11 11 9 11 17 19 14 21 14 21 17 15 11 2 3 8 9 13 21 23 21 19 18 17 15 13 10 7 5 4 2 1 3 3 2 1 5 5 5 6 7 8 10 12 13 11 12 10
20 15 7 8 9 13 11 13 19 10 18 17 16 8 4 7 10 12 15 18 22 21 19 18 16 14 12 10 6 4 3 1 1 3 3 1 2 5 6 6 7 7 8 10 11 11 8 7 6
28 23 11 11 9 9 15 10 9 19 26 19 17 7 6 9 11 14 17 17 21 21 19 17 15 14 12 9 6 4 2 0 2 2 1 1 2 6 8 8 7 7 8 11 11 8 7 5 5
24 18 18 14 1 3 5 6 12 16 12 12 15 10 9 11 13 16 17 20 21 20 20 17 15 13 11 9 6 3 2 1 0 1 0 1 4 7 9 8 6 6 8 10 10 8 7 7 7
19 23 12 10 13 8 5 5 10 9 14 10 9 10 10 12 14 16 17 19 19 20 18 15 14 12 11 8 5 4 2 2 3 1 2 3 5 8 10 8 7 8 9 10 9 8 7 7 7
11 22 7 10 6 6 3 5 8 16 15 14 11 11 14 15 17 17 17 19 19 19 17 15 13 11 10 8 6 4 3 3 4 2 2 2 5 8 10 9 9 9 10 9 8 8 7 7 8
22 19 21 11 8 8 2 5 1 9 1 3 8 11 14 15 16 17 17 19 19 19 18 15 13 10 9 8 6 5 3 4 4 4 3 3 6 9 10 11 9 10 10 9 8 8 7 8 9
Wind_Direction
155 144 143 134 213 271 242 222 280 241 230 147 136 192 238 215 186 285 180 184 174 182 183 191 195 195 197 202 204 206 212 217 223 227 232 233 237 239 243 245 251 263 272 284 286 282 271 260 248
155 143 137 115 214 220 211 243 220 228 320 300 225 209 204 257 232 274 196 178 177 184 186 190 197 199 200 204 208 211 216 222 227 231 235 235 236 236 238 240 242 251 261 274 283 279 272 269 260
150 167 212 205 215 226 195 212 262 322 316 256 274 241 181 213 214 247 190 175 177 187 190 196 197 201 204 206 209 213 219 225 230 233 236 236 238 240 240 242 248 247 250 257 264 263 264 265 270
160 179 115 225 235 251 237 209 262 314 354 149 247 271 251 231 184 213 190 177 181 188 192 196 198 202 207 210 212 215 220 226 231 232 235 238 241 243 250 252 253 254 251 252 256 255 261 263 267
159 146 218 240 241 254 244 266 265 283 299 302 202 267 268 253 227 223 187 184 189 190 195 199 202 205 209 213 215 217 221 227 232 238 238 239 243 248 252 260 260 258 256 256 258 255 257 263 259
142 290 215 234 227 251 264 266 247 250 233 298 199 262 259 277 233 207 192 193 195 194 197 201 205 209 211 214 216 220 224 229 233 237 242 245 248 251 257 259 263 263 262 259 258 256 256 254 259
194 196 264 268 263 264 230 198 200 167 343 68 299 257 283 310 265 222 204 197 200 201 199 202 205 210 213 216 219 222 224 231 236 239 243 247 250 253 252 257 265 267 264 265 264 263 261 258 255
178 201 251 243 255 266 182 189 140 326 313 33 190 257 306 331 324 219 211 202 206 203 205 206 206 206 208 211 218 222 224 232 238 241 242 246 249 250 257 263 273 270 269 267 265 263 262 262 260
175 222 242 242 227 253 169 244 133 327 289 278 253 264 290 299 293 209 213 217 211 208 208 208 206 204 206 210 213 219 225 232 237 243 242 244 246 250 252 257 270 272 272 271 266 266 265 262 256
200 227 229 227 235 270 293 298 319 284 294 285 272 275 271 282 251 243 218 220 215 212 209 208 208 206 205 207 211 209 219 227 231 237 238 241 246 249 250 254 268 266 270 269 264 267 274 284 253
203 231 239 245 236 244 283 286 296 292 287 279 292 298 304 297 262 250 241 231 221 220 212 210 209 208 203 203 206 210 219 227 240 245 249 248 246 250 249 252 263 259 266 264 264 264 267 274 254
223 230 242 251 261 264 264 300 279 281 271 279 291 283 286 289 277 264 247 239 229 221 219 207 207 207 207 205 208 216 225 237 243 248 252 248 250 248 246 249 258 255 260 262 262 263 256 262 253
233 238 244 251 265 265 276 266 270 284 278 280 284 279 270 271 276 268 253 248 235 230 222 208 204 202 204 205 208 215 226 236 241 246 247 247 244 245 247 250 251 248 252 260 261 261 257 254 248
228 232 243 252 262 267 269 267 262 262 266 284 281 273 273 272 269 274 251 242 230 227 218 211 202 199 200 203 208 216 227 234 240 243 245 248 246 248 249 250 244 245 243 246 248 249 251 244 239
241 246 237 231 242 252 273 270 248 259 275 279 277 281 275 273 277 254 250 237 231 225 207 207 196 194 197 200 206 218 227 236 243 249 251 250 249 253 248 245 242 239 245 236 242 246 247 237 226
210 216 233 225 229 240 207 268 271 271 282 279 281 283 282 280 274 268 259 247 237 208 191 202 193 193 191 193 205 217 228 242 251 254 255 253 253 255 248 246 246 242 231 229 236 239 237 228 217
214 234 217 238 212 231 206 277 266 266 281 286 287 286 285 284 280 267 266 247 210 198 190 191 189 186 182 189 199 217 236 248 252 254 251 251 247 252 247 246 244 231 221 228 231 230 227 217 204
216 225 228 234 225 233 247 255 270 283 295 281 288 286 284 275 271 293 272 224 198 186 193 188 181 177 178 183 195 215 239 252 255 250 250 247 241 250 244 244 230 223 220 222 223 223 215 211 195
257 238 238 228 226 254 260 276 280 288 292 281 283 281 276 271 297 325 278 202 180 177 172 169 165 171 171 172 184 209 235 241 248 254 257 242 240 249 239 238 223 217 218 220 215 210 203 192 174
235 240 238 241 248 240 274 282 288 280 273 277 286 284 277 283 283 329 157 169 174 166 164 159 161 169 172 179 183 192 210 244 259 268 262 242 248 253 241 228 218 209 212 208 201 201 191 176 178
225 231 235 244 214 242 281 281 279 277 274 294 284 269 272 269 279 168 142 162 164 161 159 157 162 165 168 176 177 193 235 245 258 273 265 248 276 258 234 220 208 207 209 208 203 200 191 169 176
234 228 242 240 234 251 232 281 275 287 286 284 283 281 276 285 192 158 152 158 161 158 155 156 157 161 164 169 167 192 200 202 250 279 266 270 282 262 219 211 199 202 212 201 196 193 194 185 177
229 215 222 227 241 275 258 268 280 264 280 277 275 269 277 205 169 154 160 155 159 155 157 155 155 155 158 160 172 177 167 193 269 283 290 274 271 219 195 179 191 203 193 191 188 188 201 196 192
201 196 176 197 234 243 245 247 270 254 255 263 266 257 91 106 128 147 150 150 155 157 155 155 156 154 158 165 174 169 172 186 301 339 319 335 241 180 164 166 168 169 181 178 181 190 208 205 207
191 191 186 208 211 246 229 220 249 254 249 246 264 262 139 145 144 150 158 157 156 160 159 160 160 159 170 173 169 175 185 205 324 328 349 331 178 173 158 157 159 174 180 175 178 185 201 204 210
190 181 197 211 224 228 214 226 251 228 240 236 239 260 154 161 154 157 163 160 160 163 164 163 162 168 179 176 171 167 173 247 290 348 2 65 151 159 151 149 159 177 179 178 179 179 183 197 173
199 207 217 230 38 234 204 236 273 246 249 225 230 218 187 170 161 160 164 168 165 167 169 162 167 175 176 176 169 164 150 262 20 30 136 152 129 144 153 144 150 151 166 172 170 170 167 161 165
190 182 187 210 218 227 227 233 238 229 237 220 213 201 170 165 161 163 170 170 172 170 166 167 172 171 174 170 169 171 151 131 66 123 131 123 148 149 162 152 147 143 146 153 156 154 147 151 144
179 189 197 204 227 209 234 227 220 229 217 214 213 179 164 166 168 166 172 172 174 167 168 171 168 169 168 171 167 175 160 118 79 102 125 110 127 147 165 162 155 146 151 149 148 141 144 144 141
199 192 192 199 184 216 241 250 339 247 246 192 148 152 163 165 161 169 171 171 173 172 172 172 173 173 174 170 161 173 144 111 84 110 107 100 121 144 160 161 152 153 154 154 150 143 149 147 138